Wind_Speed
7 7 6 4 8 14 11 9 8 9 9 7 6 3 4 3 2 2 3 1 1 2 4 4 5 6 5 7 9 11 13 11 14 18 16 12 7 5 6 4 5 5 5
9 9 9 8 10 8 7 5 7 7 8 9 6 5 7 7 6 5 4 3 3 4 6 6 6 7 6 7 8 10 10 10 10 18 18 15 10 8 6 5 4 5 5
11 10 12 12 11 7 6 6 7 8 8 6 6 6 6 7 6 8 8 6 4 5 6 6 7 6 6 6 6 6 7 8 9 12 20 15 12 9 8 7 7 9 7
10 10 14 17 11 8 6 7 7 7 8 8 8 6 5 6 5 6 6 6 6 6 6 6 7 7 6 4 4 4 4 6 9 11 15 16 11 11 10 9 10 11 9
11 12 14 12 10 8 8 8 7 6 8 7 7 6 3 4 3 3 4 4 6 6 6 6 5 6 7 5 5 4 4 6 10 13 15 15 14 13 12 12 11 10 7
14 13 14 12 10 9 9 8 8 8 9 7 6 3 1 3 2 2 2 2 4 6 6 7 6 6 7 6 5 5 8 4 8 12 13 14 13 13 12 11 11 9 5
18 18 17 14 12 9 9 7 8 6 8 9 6 3 2 3 1 1 1 0 2 2 3 4 5 5 6 6 6 6 6 8 8 5 8 10 12 10 11 10 10 7 6
21 21 20 16 13 11 9 7 7 8 7 6 9 7 4 4 3 2 1 1 1 1 1 1 2 2 4 5 5 5 7 9 10 10 9 9 9 9 11 9 9 9 7
23 23 21 17 16 13 11 9 7 9 12 8 10 8 8 5 6 5 5 4 3 2 2 1 1 0 1 3 2 2 5 8 9 9 10 9 9 9 8 7 9 10 9
20 20 19 18 17 15 13 12 8 10 12 11 10 10 9 9 9 9 9 8 6 3 2 3 3 3 2 3 3 3 5 8 8 9 9 9 9 8 7 6 7 9 8
17 17 17 16 16 14 13 14 13 12 15 15 13 14 13 12 10 11 12 12 10 6 4 4 5 6 6 5 5 5 6 10 11 10 10 10 10 8 5 3 8 10 9
18 20 18 18 15 13 13 13 16 18 18 19 18 15 14 14 14 14 13 14 14 13 10 7 6 8 9 9 8 8 12 12 11 11 9 9 7 4 2 2 5 6 9
20 19 20 17 16 16 15 15 20 20 19 19 21 21 19 18 17 16 16 16 18 17 15 11 9 10 11 12 12 14 14 15 14 13 11 9 8 7 7 6 6 6 10
18 19 19 17 17 16 16 17 15 15 17 16 20 21 23 23 23 21 21 19 19 19 19 17 14 13 13 13 15 16 16 16 18 14 14 13 11 10 9 5 7 7 9
17 18 19 17 16 15 16 18 17 16 18 20 21 23 23 23 24 22 22 24 22 20 20 21 21 19 18 17 16 16 17 15 14 14 15 14 12 12 11 8 5 10 9
13 15 15 14 14 14 13 15 18 18 19 20 20 21 25 29 29 22 23 26 26 25 26 27 25 22 21 19 18 19 19 17 16 16 15 14 14 13 11 11 11 11 10
2 4 6 9 9 11 11 13 14 15 17 20 23 27 28 26 23 20 21 20 24 27 28 28 26 24 22 22 21 22 19 16 15 15 15 14 13 15 14 12 14 11 13
6 4 4 5 9 9 11 14 14 13 13 13 15 16 17 19 21 23 24 24 24 27 29 30 29 26 24 24 24 25 22 20 19 18 17 16 15 16 17 16 15 14 13
7 8 9 9 7 8 10 12 14 14 14 15 14 13 15 16 16 17 19 20 23 27 28 29 27 26 25 25 27 28 26 25 23 23 23 21 20 18 17 15 18 16 14
7 8 10 10 10 9 10 9 11 13 13 13 13 11 11 11 13 15 16 20 21 23 26 25 24 24 24 26 29 31 30 29 30 32 32 27 23 22 21 20 19 19 18
7 9 10 11 11 11 11 12 12 12 12 13 12 10 10 12 12 12 13 15 20 24 22 26 26 25 26 25 30 32 32 28 30 30 32 32 29 26 23 23 24 25 20
13 11 12 12 11 12 11 12 12 12 12 13 11 10 11 13 13 12 12 12 15 20 24 26 27 25 26 28 29 34 34 31 33 33 33 33 33 29 27 26 28 27 26
19 16 14 12 11 13 13 13 11 12 16 16 15 14 13 14 13 11 13 13 13 16 18 19 23 25 26 27 28 32 34 33 35 34 34 32 34 33 32 33 31 33 34
17 18 16 12 11 11 11 12 12 15 17 14 12 13 14 15 16 18 19 19 18 16 17 16 16 16 20 25 27 30 33 31 33 37 37 36 35 32 33 35 37 35 26
19 17 17 14 15 13 13 11 12 14 14 13 13 14 15 17 17 19 21 22 22 22 22 25 25 24 22 23 27 30 30 34 37 37 39 35 37 36 36 33 26 28 31
14 12 13 14 16 13 11 9 11 9 10 11 12 13 15 15 13 12 11 12 15 20 23 25 25 26 30 31 33 34 35 36 30 26 31 38 37 38 35 32 30 26 29
Wind_Direction
169 172 177 180 120 113 145 160 167 149 152 144 147 100 98 137 154 243 262 266 94 83 87 96 111 114 136 168 179 186 199 215 193 182 182 178 176 176 139 139 137 144 151
155 172 192 196 162 146 161 149 149 161 149 147 135 127 105 98 84 74 76 140 118 104 89 84 89 92 117 127 156 177 191 207 226 184 186 177 176 159 156 146 140 129 117
165 191 207 192 192 193 187 176 173 163 153 160 145 130 102 87 80 76 74 98 111 92 87 93 90 88 106 119 153 184 193 214 217 211 182 183 179 182 170 168 150 134 128
176 192 202 182 179 173 166 172 174 176 176 168 146 132 110 94 81 81 80 81 83 84 87 85 84 87 97 124 154 171 193 205 192 184 183 187 189 181 168 169 156 139 123
187 173 182 182 180 167 164 175 178 182 181 166 144 133 130 111 90 68 73 75 71 70 80 89 96 92 89 96 116 135 152 176 172 177 182 190 193 186 177 169 157 140 137
180 177 186 178 177 159 168 167 171 179 188 181 163 146 165 143 156 90 101 72 78 81 77 86 92 99 96 101 111 127 132 126 165 176 191 194 192 182 180 174 164 151 178
179 187 187 180 174 170 179 174 169 179 212 201 191 188 178 181 206 128 116 29 77 83 61 67 73 90 100 96 107 113 132 149 152 168 190 184 185 185 185 182 184 192 192
186 193 192 185 183 181 196 203 193 207 224 252 233 221 215 212 233 226 211 232 247 239 318 1 32 60 116 109 105 121 136 137 142 147 150 162 173 184 179 188 207 205 214
193 197 198 193 197 198 199 212 228 235 236 260 234 238 233 232 258 249 254 234 241 281 272 242 226 337 109 120 119 151 153 159 157 156 161 166 170 173 186 196 203 204 208
199 202 203 205 209 217 222 224 232 241 246 249 244 238 235 239 251 244 247 244 241 265 255 256 233 215 207 177 175 181 175 166 162 164 166 166 169 178 185 196 203 206 225
196 202 207 211 217 219 226 231 236 243 243 249 251 238 236 238 244 252 250 251 251 254 268 268 260 228 212 195 185 193 193 174 158 154 149 143 142 145 155 182 208 211 229
201 205 214 219 228 232 233 242 239 242 247 247 250 252 244 243 241 244 250 255 252 250 252 252 255 233 225 215 207 202 195 189 184 179 178 176 178 188 206 146 151 187 211
216 225 232 223 224 241 251 257 247 244 252 253 255 253 252 252 251 248 250 252 248 246 248 241 246 238 233 227 218 214 210 214 216 219 223 218 212 216 193 189 190 174 156
227 231 237 240 239 240 255 261 265 264 266 264 267 268 263 253 253 252 252 255 255 239 233 234 240 237 233 231 232 228 226 228 227 235 238 212 213 195 187 189 202 199 200
224 232 240 240 238 240 251 262 259 255 263 269 268 272 269 262 262 259 258 260 260 249 235 232 234 235 230 226 226 223 214 213 211 205 206 211 208 193 197 203 215 206 206
239 242 242 239 245 251 251 255 257 256 256 257 264 254 268 265 263 259 252 260 256 245 230 232 234 236 234 231 225 212 211 217 215 210 217 215 214 211 210 213 215 215 210
239 277 250 249 248 253 263 266 263 266 263 269 268 263 264 261 261 254 259 258 263 245 235 233 233 234 234 228 224 215 219 222 217 220 226 228 225 218 215 217 204 208 208
21 6 325 302 267 260 258 267 272 283 292 298 291 279 271 265 261 260 256 256 241 237 238 233 229 233 231 227 222 216 215 221 224 226 227 230 230 225 219 215 217 222 221
345 355 355 344 314 288 270 262 269 276 287 297 297 272 273 269 262 258 250 240 239 241 243 236 234 235 234 230 223 220 221 228 232 235 233 235 232 224 220 224 218 225 226
308 324 331 331 331 312 282 266 273 281 284 293 300 303 293 285 268 260 255 251 240 248 244 242 239 235 234 231 228 226 229 236 244 242 236 235 233 231 230 223 224 230 234
301 301 320 317 313 291 271 275 275 273 277 285 294 301 299 296 289 281 270 260 255 249 253 258 248 241 240 240 235 229 232 243 238 238 236 231 231 231 232 233 233 239 244
297 300 303 304 292 279 283 288 293 294 292 295 298 291 292 290 288 279 268 267 264 260 264 262 261 257 252 249 242 233 233 242 237 239 238 236 234 235 236 237 239 242 241
275 277 284 282 293 283 279 286 289 308 318 306 292 289 289 292 277 267 268 272 283 283 269 263 264 262 256 248 243 240 234 242 243 243 243 243 240 238 240 241 243 245 246
276 269 279 276 279 275 284 287 295 309 313 309 293 292 291 283 269 269 273 276 270 273 258 257 263 271 263 253 247 239 233 246 251 248 247 245 244 243 238 240 248 249 249
284 275 269 268 265 270 278 284 302 313 313 314 303 297 291 288 280 271 267 261 266 262 265 268 267 264 260 257 245 244 247 252 258 252 247 245 248 244 237 247 233 237 240
290 283 270 270 260 264 269 290 307 313 315 315 311 302 297 291 280 274 275 268 262 256 264 258 261 263 260 264 258 248 253 257 257 248 251 246 245 252 231 220 226 231 239
Height
1515 1520 1522 1520 1519 1517 1519 1521 1519 1521 1523 1524 1526 1526 1524 1525 1524 1524 1522 1522 1521 1521 1521 1520 1519 1518 1517 1519 1521 1523 1525 1527 1529 1533 1535 1538 1539 1540 1541 1542 1543 1543 1544
1513 1519 1523 1522 1520 1521 1521 1521 1521 1522 1523 1523 1524 1525 1525 1525 1525 1524 1522 1522 1523 1522 1521 1520 1520 1519 1519 1519 1521 1524 1525 1527 1529 1531 1535 1537 1539 1541 1542 1544 1545 1545 1546
1509 1516 1521 1520 1521 1522 1522 1522 1523 1523 1523 1525 1524 1524 1524 1525 1525 1524 1524 1524 1524 1522 1522 1521 1520 1520 1520 1520 1522 1524 1525 1527 1529 1531 1533 1536 1539 1541 1541 1543 1545 1545 1547
1511 1515 1519 1521 1521 1522 1523 1525 1526 1527 1525 1525 1524 1524 1525 1526 1527 1526 1526 1526 1525 1524 1522 1522 1521 1521 1521 1522 1523 1523 1524 1526 1528 1531 1533 1536 1538 1540 1542 1543 1545 1547 1549
1514 1515 1521 1523 1522 1522 1522 1526 1528 1529 1528 1528 1526 1525 1526 1526 1527 1527 1526 1527 1526 1525 1524 1523 1522 1522 1522 1522 1523 1523 1524 1526 1528 1529 1532 1534 1537 1540 1541 1543 1545 1547 1549
1514 1518 1523 1523 1525 1524 1524 1525 1526 1528 1530 1530 1528 1527 1526 1526 1527 1527 1527 1527 1527 1526 1525 1525 1524 1523 1523 1524 1524 1524 1525 1527 1529 1530 1532 1534 1537 1539 1542 1544 1545 1546 1549
1510 1515 1518 1521 1523 1524 1525 1526 1525 1527 1530 1529 1529 1528 1527 1527 1527 1527 1527 1528 1528 1528 1528 1526 1526 1525 1525 1525 1525 1525 1526 1527 1529 1531 1532 1534 1536 1539 1541 1543 1545 1546 1547
1507 1511 1515 1517 1519 1521 1524 1526 1525 1526 1528 1529 1529 1528 1527 1528 1527 1528 1528 1528 1529 1529 1528 1528 1526 1527 1526 1526 1526 1526 1527 1528 1529 1530 1532 1534 1536 1538 1540 1543 1545 1546 1546
1503 1508 1512 1514 1517 1519 1521 1524 1524 1524 1527 1527 1528 1528 1527 1527 1526 1527 1528 1528 1529 1528 1528 1528 1527 1528 1527 1527 1528 1528 1528 1528 1529 1530 1532 1533 1535 1537 1540 1541 1542 1544 1545
1500 1505 1509 1512 1515 1518 1520 1521 1521 1522 1524 1525 1525 1525 1524 1525 1524 1525 1526 1527 1529 1528 1528 1527 1527 1528 1528 1528 1529 1529 1528 1529 1530 1531 1533 1534 1535 1537 1539 1540 1541 1542 1543
1499 1506 1510 1514 1516 1516 1517 1517 1517 1519 1520 1521 1522 1521 1521 1522 1522 1523 1524 1526 1527 1526 1526 1527 1527 1528 1528 1529 1530 1530 1530 1530 1530 1532 1533 1534 1535 1537 1538 1538 1539 1540 1541
1498 1503 1509 1512 1516 1513 1511 1511 1514 1515 1517 1518 1518 1518 1518 1518 1518 1519 1521 1522 1524 1524 1525 1526 1526 1526 1527 1528 1530 1530 1531 1531 1532 1533 1533 1534 1536 1537 1537 1537 1537 1538 1539
1497 1501 1507 1508 1507 1511 1511 1511 1510 1512 1512 1512 1513 1513 1514 1515 1515 1515 1516 1518 1519 1521 1523 1524 1525 1525 1525 1526 1527 1529 1529 1530 1531 1531 1532 1534 1535 1536 1536 1537 1537 1538 1538
1495 1498 1501 1503 1503 1504 1508 1510 1508 1508 1508 1507 1507 1507 1509 1510 1511 1512 1512 1513 1514 1516 1518 1519 1521 1522 1523 1523 1523 1525 1526 1527 1528 1529 1530 1531 1533 1533 1534 1535 1535 1536 1537
1493 1496 1498 1496 1497 1500 1502 1506 1504 1503 1504 1503 1503 1503 1504 1504 1505 1507 1508 1508 1509 1510 1513 1514 1515 1516 1518 1519 1519 1521 1522 1524 1524 1525 1527 1528 1529 1530 1531 1533 1534 1535 1536
1491 1492 1494 1493 1497 1496 1497 1500 1502 1500 1498 1498 1497 1497 1498 1497 1499 1500 1501 1502 1502 1504 1504 1506 1509 1511 1513 1515 1516 1517 1519 1520 1522 1523 1524 1525 1526 1527 1528 1529 1531 1532 1533
1492 1491 1491 1493 1493 1494 1494 1496 1499 1495 1493 1492 1492 1491 1490 1491 1492 1492 1494 1494 1495 1497 1497 1500 1503 1505 1508 1510 1512 1514 1516 1517 1519 1520 1521 1522 1523 1524 1525 1526 1527 1529 1530
1492 1492 1491 1490 1492 1490 1493 1495 1494 1491 1488 1488 1487 1486 1485 1484 1485 1486 1487 1487 1488 1488 1490 1492 1495 1499 1502 1505 1507 1509 1512 1514 1515 1517 1518 1519 1520 1520 1521 1522 1523 1524 1526
1494 1492 1492 1490 1489 1488 1488 1489 1491 1489 1485 1483 1481 1480 1479 1480 1479 1480 1480 1480 1482 1483 1485 1487 1490 1493 1496 1498 1501 1504 1507 1508 1510 1511 1513 1514 1515 1516 1517 1517 1518 1520 1521
1492 1490 1491 1490 1487 1486 1489 1485 1486 1485 1482 1479 1477 1475 1475 1475 1475 1475 1476 1476 1477 1480 1481 1483 1484 1486 1488 1490 1493 1497 1500 1502 1503 1504 1506 1508 1510 1510 1511 1512 1513 1515 1516
1489 1489 1487 1487 1486 1487 1488 1486 1483 1480 1477 1475 1473 1473 1472 1471 1470 1470 1471 1471 1473 1474 1477 1478 1477 1478 1482 1484 1486 1488 1491 1493 1494 1496 1498 1500 1503 1504 1505 1507 1508 1510 1511
1488 1485 1485 1485 1485 1485 1485 1484 1481 1477 1473 1471 1469 1469 1469 1468 1467 1467 1467 1467 1468 1471 1472 1472 1473 1474 1475 1477 1478 1480 1483 1485 1487 1489 1490 1492 1494 1496 1498 1499 1501 1502 1504
1484 1483 1481 1481 1482 1482 1481 1482 1478 1474 1470 1467 1465 1464 1464 1464 1465 1465 1464 1464 1464 1465 1466 1466 1467 1468 1469 1469 1470 1472 1474 1476 1478 1481 1482 1484 1486 1488 1490 1492 1493 1494 1494
1479 1478 1478 1478 1477 1478 1478 1478 1475 1471 1466 1464 1464 1463 1461 1461 1461 1462 1461 1460 1460 1460 1461 1461 1461 1461 1461 1462 1463 1464 1466 1468 1470 1472 1474 1475 1477 1479 1480 1482 1483 1485 1487
1473 1473 1472 1472 1474 1473 1475 1473 1469 1468 1463 1461 1461 1460 1458 1457 1455 1455 1455 1453 1454 1455 1455 1456 1455 1455 1455 1455 1455 1456 1456 1457 1458 1460 1463 1466 1468 1469 1471 1473 1473 1476 1478
1467 1467 1468 1466 1468 1468 1471 1469 1465 1462 1460 1459 1458 1456 1455 1454 1453 1450 1449 1449 1448 1448 1449 1448 1448 1447 1447 1447 1447 1447 1449 1449 1449 1450 1454 1456 1458 1460 1461 1461 1463 1467 1469